Alexandria, Egypt

10:56 AM EET on March 26, 2017 (GMT +0200)
Alexandria International

Weather History for HEAX - July, 2013

Change the Weather History Date:

Sunday, July 21, 2013

  Actual Average Record
Temperature  
Mean Temperature 79 °F -  
Max Temperature 85 °F 85 °F 93 °F (2011)
Min Temperature 73 °F 74 °F 68 °F (2007)
Cooling Degree Days 14    
Growing Degree Days 29 (Base 50)    
Moisture  
Dew Point 69 °F    
Average Humidity 70    
Maximum Humidity 83    
Minimum Humidity 48    
Precipitation  
Precipitation 0.00 in 0.00 in - ()
Sea Level Pressure  
Sea Level Pressure 29.78 in    
Wind  
Wind Speed 8 mph ()    
Max Wind Speed 14 mph    
Max Gust Speed -    
Visibility 6.1 miles    
Events      
Averages and records for this station are not official NWS values.
T = Trace of Precipitation, MM = Missing Value Source: Averaged Metar Reports

Daily Weather History Graph

Daily Weather History Graph

Search for Another Location

Airport or City:

Trip Planner

Search our weather history database for the weather conditions in past years. The results will help you decide how hot, cold, wet, or windy it might be!

Date:

Astronomy

Jul. 21, 2013 Rise Set
Actual Time 5:10 AM EET 7:02 PM EET
Civil Twilight 4:43 AM EET 7:29 PM EET
Nautical Twilight 4:10 AM EET 8:02 PM EET
Astronomical Twilight 3:35 AM EET 8:36 PM EET
Moon 5:45 PM EET (7/21) 3:32 AM EET (7/21)
Length of Visible Light 14h 46m
Length of Day
13h 52m
Waxing Gibbous, 97% of the Moon is Illuminated
Jul 21
Waxing Gibbous
Jul 22
Full
Jul 29
Last Quarter
Aug 6
New
Aug 14
First Quarter

Hourly Weather History & Observations

Time (EET) Temp. Heat Index Dew Point Humidity Pressure Visibility Wind Dir Wind Speed Gust Speed Precip Events Conditions
12:00 AM 75.2 °F - 68.0 °F 78% 29.80 in - NNW 5.8 mph - N/A   Clear
1:00 AM 75.2 °F - 68.0 °F 78% 29.77 in - NW 8.1 mph - N/A   Clear
2:00 AM 75 °F - 68 °F 74% 29.78 in 6 mi WNW 8.1 mph - -  
2:00 AM 75.2 °F - 68.0 °F 78% 29.77 in - WNW 8.1 mph - N/A   Clear
3:00 AM 75.2 °F - 69.8 °F 83% 29.80 in - WNW 5.8 mph - N/A   Clear
4:00 AM 75.2 °F - 68.0 °F 78% 29.77 in - WNW 5.8 mph - N/A   Clear
5:00 AM 75.2 °F - 69.8 °F 83% 29.77 in 6.2 mi WNW 5.8 mph - N/A   Scattered Clouds
6:00 AM 75.2 °F - 68.0 °F 78% 29.77 in 6.2 mi WNW 8.1 mph - N/A   Scattered Clouds
7:00 AM 78.8 °F - 69.8 °F 74% 29.77 in 6.2 mi WNW 6.9 mph - N/A   Scattered Clouds
8:00 AM 80 °F - 69 °F 62% 29.80 in 6 mi WNW 9.2 mph - -   Partly Cloudy
8:00 AM 80.6 °F 83.9 °F 69.8 °F 70% 29.80 in 6.2 mi WNW 9.2 mph - N/A   Scattered Clouds
9:00 AM 80.6 °F 83.2 °F 68.0 °F 65% 29.80 in 6.2 mi WNW 9.2 mph - N/A   Scattered Clouds
10:00 AM 82.4 °F 85.4 °F 68.0 °F 62% 29.80 in 6.2 mi WNW 11.5 mph - N/A   Scattered Clouds
11:00 AM 82.4 °F 85.4 °F 68.0 °F 62% 29.80 in 6.2 mi NW 10.4 mph - N/A   Scattered Clouds
12:00 PM 84.2 °F 87.3 °F 68.0 °F 58% 29.80 in 6.2 mi WNW 11.5 mph - N/A   Partly Cloudy
1:00 PM 78.8 °F - 68.0 °F 69% 29.77 in 6.2 mi WNW 12.7 mph - N/A   Partly Cloudy
2:00 PM 84 °F - 67 °F 48% 29.79 in 6 mi NW 11.5 mph - -   Scattered Clouds
2:00 PM 84.2 °F 87.3 °F 68.0 °F 58% 29.77 in 6.2 mi NW 11.5 mph - N/A   Partly Cloudy
4:00 PM 84.2 °F 87.3 °F 68.0 °F 58% 29.77 in - WNW 12.7 mph - N/A   Clear
5:00 PM 82.4 °F 85.4 °F 68.0 °F 62% 29.77 in - NW 13.8 mph - N/A   Clear
6:00 PM 80.6 °F 83.9 °F 69.8 °F 70% 29.74 in - NW 11.5 mph - N/A   Clear
7:00 PM 78.8 °F - 69.8 °F 74% 29.74 in - NW 10.4 mph - N/A   Clear
8:00 PM 78 °F - 69 °F 67% 29.76 in 6 mi NW 10.4 mph - -  
8:00 PM 78.8 °F - 69.8 °F 74% 29.74 in - NW 10.4 mph - N/A   Clear
9:00 PM 78.8 °F - 68.0 °F 69% 29.77 in - NNW 9.2 mph - N/A   Clear
10:00 PM 77.0 °F - 68.0 °F 74% 29.77 in - NW 9.2 mph - N/A   Clear
11:00 PM 77.0 °F - 69.8 °F 78% 29.77 in - NW 9.2 mph - N/A   Clear